Location: *
(46.1200°N, 11.2700°E)
Time: 08:44:17
(UTC+00:00)

USA 306 - Pass Details

Date: 02 March 2021
Orbit: 564 x 577 km, 54.0° (Epoch: 17 April)

Event Time Altitude Azimuth Distance (km) Brightness Sun altitude
Rises 18:18:54 0° 279° (W) 2,772 8.4 -14.0°
Reaches altitude 10° 18:21:23 10° 290° (WNW) 1,873 6.8 -14.4°
Maximum altitude 18:25:08 29° 352° (N) 1,050 4.4 -15.0°
Enters shadow 18:27:55 15° 46° (NE) 1,554 4.7 -15.5°
